ABW8891 USTR-USSS

Flight info

Callsign ABW8891
Flight time N/A
Altitude 32000
Route USTR BEPAR DCT BANAM DCT SOPUS USSS
Aircraft B77L/H-SDE2E3FGHIJ5LORVWXY/LB1D1

Departure

Time 2026-05-07 15:03
Airport Roshchino International Airport (USTR)

Arrival

Time N/A
Airport Koltsovo Airport (USSS)
Time Latitude Longitude Altitude Speed Heading
2026-05-07 14:21 57.17851 65.35103 340 ft 0 kts 45°
2026-05-07 14:47 57.17842 65.35089 340 ft 1 kts 30°
2026-05-07 14:47 57.17831 65.35080 340 ft 1 kts
2026-05-07 14:47 57.17819 65.35079 340 ft 1 kts 348°
2026-05-07 14:47 57.17806 65.35087 340 ft 1 kts 331°
2026-05-07 14:48 57.17796 65.35100 340 ft 1 kts 313°
2026-05-07 14:48 57.17788 65.35119 340 ft 2 kts 296°
2026-05-07 14:48 57.17782 65.35142 340 ft 1 kts 306°
2026-05-07 14:48 57.17777 65.35152 340 ft 0 kts 313°
2026-05-07 14:49 57.17777 65.35153 340 ft 0 kts 313°
2026-05-07 14:49 57.17777 65.35152 340 ft 0 kts 313°
2026-05-07 14:53 57.17792 65.35125 340 ft 6 kts 315°
2026-05-07 14:53 57.17844 65.35031 340 ft 16 kts 315°
2026-05-07 14:53 57.17939 65.34857 338 ft 21 kts 315°
2026-05-07 14:53 57.18050 65.34653 336 ft 24 kts 314°
2026-05-07 14:54 57.18133 65.34498 334 ft 17 kts 315°
2026-05-07 14:54 57.18227 65.34323 332 ft 21 kts 314°
2026-05-07 14:54 57.18329 65.34134 330 ft 19 kts 314°
2026-05-07 14:54 57.18436 65.33936 326 ft 24 kts 314°
2026-05-07 14:55 57.18556 65.33714 321 ft 22 kts 315°
2026-05-07 14:55 57.18616 65.33549 321 ft 14 kts 278°
2026-05-07 14:55 57.18618 65.33396 322 ft 10 kts 258°
2026-05-07 14:55 57.18613 65.33371 322 ft 0 kts 244°
2026-05-07 14:57 57.18613 65.33370 322 ft 0 kts 244°
2026-05-07 14:57 57.18604 65.33347 323 ft 3 kts 234°
2026-05-07 14:58 57.18581 65.33292 324 ft 6 kts 231°
2026-05-07 14:58 57.18560 65.33204 326 ft 7 kts 266°
2026-05-07 14:58 57.18587 65.33102 326 ft 10 kts 312°
2026-05-07 14:58 57.18652 65.32981 325 ft 15 kts 315°
2026-05-07 14:59 57.18738 65.32822 323 ft 19 kts 314°
2026-05-07 14:59 57.18826 65.32653 321 ft 17 kts 304°
2026-05-07 14:59 57.18800 65.32458 325 ft 17 kts 230°
2026-05-07 14:59 57.18720 65.32293 331 ft 16 kts 227°
2026-05-07 15:00 57.18642 65.32134 335 ft 17 kts 227°
2026-05-07 15:00 57.18595 65.32004 340 ft 11 kts 270°
2026-05-07 15:00 57.18646 65.31879 340 ft 14 kts 317°
2026-05-07 15:00 57.18699 65.31747 340 ft 13 kts 263°
2026-05-07 15:01 57.18653 65.31615 344 ft 7 kts 228°
2026-05-07 15:01 57.18650 65.31609 344 ft 0 kts 228°
2026-05-07 15:02 57.18646 65.31599 344 ft 6 kts 228°
2026-05-07 15:02 57.18491 65.31284 351 ft 76 kts 227°
2026-05-07 15:02 57.17930 65.30140 377 ft 159 kts 228°
2026-05-07 15:03 57.17097 65.28565 1000 ft 179 kts 226°
2026-05-07 15:03 57.16383 65.26830 2174 ft 170 kts 250°
2026-05-07 15:03 57.16161 65.24741 3103 ft 176 kts 268°
2026-05-07 15:03 57.16107 65.22473 3898 ft 181 kts 269°
2026-05-07 15:04 57.16055 65.20093 4282 ft 198 kts 269°
2026-05-07 15:04 57.16001 65.17497 4861 ft 212 kts 269°
2026-05-07 15:04 57.15942 65.14726 5426 ft 225 kts 269°
2026-05-07 15:04 57.15880 65.11791 5949 ft 239 kts 269°
2026-05-07 15:05 57.15813 65.08639 6418 ft 254 kts 269°
2026-05-07 15:05 57.15745 65.05322 7001 ft 262 kts 268°
2026-05-07 15:05 57.15678 65.02079 7702 ft 264 kts 268°
2026-05-07 15:05 57.15610 64.98790 8370 ft 266 kts 267°
2026-05-07 15:06 57.15541 64.95416 9024 ft 268 kts 267°
2026-05-07 15:06 57.15472 64.92098 9633 ft 271 kts 266°
2026-05-07 15:06 57.15400 64.88654 10197 ft 276 kts 266°
2026-05-07 15:06 57.15323 64.84990 10512 ft 291 kts 266°
2026-05-07 15:07 57.15246 64.81225 11035 ft 297 kts 265°
2026-05-07 15:07 57.15168 64.77424 11640 ft 302 kts 265°
2026-05-07 15:07 57.15089 64.73547 12297 ft 306 kts 265°
2026-05-07 15:07 57.15012 64.69700 13022 ft 309 kts 265°
2026-05-07 15:08 57.14933 64.65763 13788 ft 312 kts 265°
2026-05-07 15:08 57.14855 64.61792 14598 ft 315 kts 265°
2026-05-07 15:08 57.14777 64.57748 15462 ft 318 kts 265°
2026-05-07 15:08 57.14703 64.53659 16332 ft 321 kts 265°
2026-05-07 15:09 57.14638 64.49577 17166 ft 325 kts 265°
2026-05-07 15:09 57.14587 64.45405 17985 ft 327 kts 264°
2026-05-07 15:09 57.14432 64.41256 18786 ft 331 kts 263°
2026-05-07 15:09 57.14272 64.37042 19572 ft 334 kts 263°
2026-05-07 15:10 57.14133 64.33013 20314 ft 338 kts 262°
2026-05-07 15:10 57.13988 64.28612 21125 ft 341 kts 263°
2026-05-07 15:10 57.13856 64.24532 21838 ft 344 kts 263°
2026-05-07 15:10 57.13715 64.20171 22579 ft 348 kts 263°
2026-05-07 15:11 57.13568 64.15701 23321 ft 351 kts 263°
2026-05-07 15:11 57.13419 64.11210 24043 ft 355 kts 263°
2026-05-07 15:11 57.13268 64.06728 24745 ft 358 kts 263°
2026-05-07 15:11 57.13114 64.02197 25443 ft 361 kts 263°
2026-05-07 15:12 57.12957 63.97605 26113 ft 364 kts 263°
2026-05-07 15:12 57.12794 63.92887 26772 ft 368 kts 263°
2026-05-07 15:12 57.12630 63.88209 27399 ft 371 kts 263°
2026-05-07 15:12 57.12462 63.83478 28024 ft 374 kts 263°
2026-05-07 15:13 57.12291 63.78698 28652 ft 377 kts 262°
2026-05-07 15:13 57.12121 63.73862 29249 ft 380 kts 264°
2026-05-07 15:13 57.12157 63.68978 29894 ft 382 kts 268°
2026-05-07 15:13 57.12255 63.64163 30662 ft 379 kts 268°
2026-05-07 15:14 57.12344 63.59322 31460 ft 376 kts 268°
2026-05-07 15:14 57.12422 63.54564 31901 ft 377 kts 268°
2026-05-07 15:14 57.12560 63.45020 31966 ft 373 kts 267°
2026-05-07 15:15 57.12681 63.35591 31967 ft 372 kts 267°
2026-05-07 15:15 57.12787 63.26315 31971 ft 371 kts 266°
2026-05-07 15:16 57.12883 63.17010 31615 ft 375 kts 266°
2026-05-07 15:16 57.12928 63.12271 30878 ft 380 kts 266°
2026-05-07 15:16 57.12971 63.07655 30158 ft 382 kts 267°
2026-05-07 15:17 57.13014 63.03081 29451 ft 384 kts 267°
2026-05-07 15:17 57.13055 62.98276 28711 ft 385 kts 267°
2026-05-07 15:17 57.13096 62.93444 27969 ft 386 kts 267°
2026-05-07 15:17 57.13134 62.88599 27226 ft 386 kts 268°
2026-05-07 15:18 57.13169 62.83836 26497 ft 386 kts 268°
2026-05-07 15:18 57.13203 62.79103 25771 ft 385 kts 268°
2026-05-07 15:18 57.13235 62.74167 25013 ft 387 kts 268°
2026-05-07 15:18 57.13265 62.69243 24261 ft 392 kts 268°
2026-05-07 15:19 57.13293 62.64322 23513 ft 393 kts 268°
2026-05-07 15:19 57.13319 62.59431 22775 ft 394 kts 268°
2026-05-07 15:19 57.13343 62.54551 22041 ft 394 kts 268°
2026-05-07 15:19 57.13366 62.49743 21390 ft 387 kts 268°
2026-05-07 15:20 57.13388 62.45146 20996 ft 373 kts 268°
2026-05-07 15:20 57.13411 62.40419 20667 ft 358 kts 268°
2026-05-07 15:20 57.13432 62.35995 20405 ft 342 kts 268°
2026-05-07 15:20 57.13451 62.31706 20207 ft 327 kts 266°
2026-05-07 15:21 57.13466 62.27606 19917 ft 317 kts 266°
2026-05-07 15:21 57.13477 62.23595 19450 ft 313 kts 266°
2026-05-07 15:21 57.13486 62.19638 18911 ft 312 kts 266°
2026-05-07 15:21 57.13494 62.15633 18369 ft 310 kts 266°
2026-05-07 15:22 57.13501 62.11702 17851 ft 308 kts 266°
2026-05-07 15:22 57.13506 62.07805 17329 ft 305 kts 266°
2026-05-07 15:22 57.13511 62.03916 16800 ft 303 kts 266°
2026-05-07 15:22 57.13478 62.00067 16275 ft 299 kts 262°
2026-05-07 15:23 57.13281 61.96315 15749 ft 297 kts 261°
2026-05-07 15:23 57.13069 61.92532 15199 ft 295 kts 261°
2026-05-07 15:23 57.12855 61.88800 14659 ft 293 kts 261°
2026-05-07 15:23 57.12639 61.85082 14119 ft 290 kts 261°
2026-05-07 15:24 57.12424 61.81404 13579 ft 288 kts 261°
2026-05-07 15:24 57.12213 61.77818 13045 ft 286 kts 261°
2026-05-07 15:24 57.12006 61.74326 12519 ft 284 kts 261°
2026-05-07 15:24 57.11802 61.70897 12051 ft 280 kts 261°
2026-05-07 15:25 57.11593 61.67398 11939 ft 280 kts 261°
2026-05-07 15:25 57.11378 61.63827 11929 ft 281 kts 261°
2026-05-07 15:25 57.11161 61.60233 11928 ft 282 kts 261°
2026-05-07 15:25 57.10945 61.56661 11928 ft 282 kts 261°
2026-05-07 15:26 57.10724 61.53037 11928 ft 282 kts 261°
2026-05-07 15:26 57.10505 61.49470 11928 ft 282 kts 261°
2026-05-07 15:26 57.10286 61.45902 11928 ft 282 kts 261°
2026-05-07 15:26 57.10070 61.42411 11928 ft 282 kts 261°
2026-05-07 15:27 57.09849 61.38863 11928 ft 282 kts 261°
2026-05-07 15:27 57.09625 61.35267 11927 ft 282 kts 261°
2026-05-07 15:27 57.09399 61.31663 11930 ft 282 kts 260°
2026-05-07 15:27 57.09173 61.28073 11930 ft 282 kts 260°
2026-05-07 15:28 57.08952 61.24577 11930 ft 282 kts 260°
2026-05-07 15:28 57.08730 61.21088 11930 ft 282 kts 260°
2026-05-07 15:28 57.08358 61.17815 11943 ft 281 kts 251°
2026-05-07 15:28 57.07742 61.14412 11933 ft 281 kts 249°
2026-05-07 15:29 57.07116 61.11123 11931 ft 282 kts 249°
2026-05-07 15:29 57.06478 61.07785 11930 ft 282 kts 249°
2026-05-07 15:29 57.05839 61.04446 11930 ft 283 kts 249°
2026-05-07 15:29 57.05209 61.01158 11930 ft 284 kts 250°
2026-05-07 15:30 57.04586 60.97908 11930 ft 283 kts 250°
2026-05-07 15:30 57.03952 60.94611 11930 ft 283 kts 250°
2026-05-07 15:30 57.03303 60.91237 11930 ft 282 kts 250°
2026-05-07 15:30 57.02650 60.87851 11930 ft 282 kts 250°
2026-05-07 15:31 57.02010 60.84536 11930 ft 282 kts 250°
2026-05-07 15:31 57.01407 60.81416 11930 ft 282 kts 250°
2026-05-07 15:31 57.00777 60.78168 11929 ft 282 kts 249°
2026-05-07 15:31 57.00164 60.75007 11929 ft 282 kts 249°
2026-05-07 15:32 56.99589 60.72050 11928 ft 280 kts 249°
2026-05-07 15:32 56.99102 60.68729 11905 ft 272 kts 263°
2026-05-07 15:32 56.99075 60.65424 11678 ft 265 kts 269°
2026-05-07 15:32 56.99145 60.62259 11250 ft 263 kts 271°
2026-05-07 15:33 56.99228 60.59143 11129 ft 250 kts 271°
2026-05-07 15:33 56.99307 60.56061 10858 ft 245 kts 271°
2026-05-07 15:33 56.99380 60.53092 10500 ft 244 kts 271°
2026-05-07 15:33 56.99453 60.50116 10133 ft 243 kts 271°
2026-05-07 15:34 56.99523 60.47188 9751 ft 243 kts 271°
2026-05-07 15:34 56.99593 60.44253 9188 ft 250 kts 272°
2026-05-07 15:34 56.99661 60.41336 8609 ft 257 kts 272°
2026-05-07 15:34 56.99730 60.38425 8084 ft 257 kts 272°
2026-05-07 15:35 56.99804 60.35252 7942 ft 244 kts 271°
2026-05-07 15:35 56.99572 60.32364 7946 ft 242 kts 250°
2026-05-07 15:35 56.98902 60.29651 7932 ft 241 kts 243°
2026-05-07 15:35 56.98143 60.27027 7926 ft 241 kts 242°
2026-05-07 15:36 56.97327 60.24295 7924 ft 241 kts 242°
2026-05-07 15:36 56.96520 60.21603 7923 ft 241 kts 242°
2026-05-07 15:36 56.95683 60.18956 7931 ft 242 kts 233°
2026-05-07 15:36 56.94530 60.16750 7933 ft 244 kts 223°
2026-05-07 15:37 56.93275 60.14710 7926 ft 244 kts 222°
2026-05-07 15:37 56.92018 60.12709 7923 ft 244 kts 222°
2026-05-07 15:37 56.90736 60.10664 7923 ft 244 kts 222°
2026-05-07 15:37 56.89481 60.08664 7923 ft 244 kts 221°
2026-05-07 15:38 56.88026 60.07068 7936 ft 248 kts 205°
2026-05-07 15:38 56.86434 60.05889 7926 ft 248 kts 202°
2026-05-07 15:38 56.84825 60.04767 7923 ft 248 kts 202°
2026-05-07 15:38 56.83228 60.03651 7922 ft 248 kts 202°
2026-05-07 15:39 56.81608 60.02516 7922 ft 248 kts 202°
2026-05-07 15:39 56.80085 60.01779 7940 ft 251 kts 188°
2026-05-07 15:39 56.78409 60.01602 7928 ft 252 kts 183°
2026-05-07 15:39 56.76702 60.01551 7923 ft 252 kts 182°
2026-05-07 15:40 56.74942 60.01505 7922 ft 252 kts 182°
2026-05-07 15:40 56.73295 60.01455 7922 ft 252 kts 182°
2026-05-07 15:40 56.71565 60.01544 7935 ft 254 kts 172°
2026-05-07 15:40 56.69885 60.02362 7931 ft 255 kts 163°
2026-05-07 15:41 56.68333 60.03450 7934 ft 257 kts 150°
2026-05-07 15:41 56.67141 60.05463 7944 ft 261 kts 122°
2026-05-07 15:41 56.66577 60.08353 7945 ft 261 kts 93°
2026-05-07 15:41 56.66827 60.11443 7779 ft 253 kts 64°
2026-05-07 15:42 56.67765 60.13981 7355 ft 254 kts 44°
2026-05-07 15:42 56.68965 60.16122 7081 ft 250 kts 39°
2026-05-07 15:42 56.69805 60.17487 6876 ft 248 kts 38°
2026-05-07 15:42 56.71026 60.19430 6574 ft 247 kts 37°
2026-05-07 15:43 56.72326 60.21489 6256 ft 245 kts 38°
2026-05-07 15:43 56.73598 60.23510 5946 ft 243 kts 38°
2026-05-07 15:43 56.74851 60.25502 5642 ft 242 kts 38°
2026-05-07 15:43 56.76040 60.27395 5287 ft 243 kts 38°
2026-05-07 15:44 56.77268 60.29351 4812 ft 249 kts 38°
2026-05-07 15:44 56.78535 60.31370 4289 ft 255 kts 39°
2026-05-07 15:44 56.79726 60.33547 3687 ft 262 kts 53°
2026-05-07 15:44 56.80350 60.36452 3108 ft 262 kts 82°
2026-05-07 15:45 56.80175 60.39271 2969 ft 246 kts 108°
2026-05-07 15:45 56.79310 60.41792 2864 ft 241 kts 133°
2026-05-07 15:45 56.78132 60.43628 2726 ft 234 kts 139°
2026-05-07 15:45 56.76912 60.45442 2697 ft 223 kts 138°
2026-05-07 15:46 56.75256 60.51841 2636 ft 205 kts 92°
2026-05-07 15:46 56.75152 60.54298 2535 ft 198 kts 91°
2026-05-07 15:47 56.75066 60.56565 2412 ft 186 kts 91°
2026-05-07 15:47 56.74974 60.58728 2392 ft 174 kts 91°
2026-05-07 15:47 56.74888 60.60865 2388 ft 168 kts 91°
2026-05-07 15:47 56.74815 60.62802 2375 ft 160 kts 91°
2026-05-07 15:48 56.74743 60.64700 2173 ft 154 kts 91°
2026-05-07 15:48 56.74674 60.66512 1989 ft 147 kts 92°
2026-05-07 15:48 56.74611 60.68142 1814 ft 135 kts 92°
2026-05-07 15:48 56.74550 60.69731 1656 ft 131 kts 92°
2026-05-07 15:49 56.74486 60.71371 1483 ft 129 kts 92°
2026-05-07 15:49 56.74425 60.72968 1309 ft 128 kts 92°
2026-05-07 15:49 56.74376 60.74448 1137 ft 128 kts 92°
2026-05-07 15:49 56.74314 60.75984 946 ft 125 kts 91°
2026-05-07 15:50 56.74251 60.77427 823 ft 126 kts 94°